KC5EZZ-13 Weather Reports


time (UTC)temp
C
wind
direction
speed
KPH
gust
KPH
rain 1hr
cm
rain 24hr
cm
rain mn
cm
humidity
%
barometer
mb
20260510061554 22 174 12.9 17.7 0.00 0.00 0.00 62 1011.1
20260510060100 22 170 11.3 17.7 0.00 0.00 0.00 61 1011.0
20260510054554 23 162 9.7 14.5 0.00 0.00 0.00 60 1011.0
20260510053056 23 162 9.7 14.5 0.00 0.00 0.00 59 1011.1
20260510051602 23 169 8.0 11.3 0.00 0.00 0.00 59 1011.3
20260510050054 22 150 6.4 11.3 0.00 0.00 0.00 58 1011.3
20260510044555 22 147 8.0 12.9 0.00 0.00 0.00 57 1011.4
20260510043101 22 145 4.8 9.7 0.00 0.00 0.00 56 1011.3
20260510041610 22 173 8.0 9.7 0.00 0.00 0.00 55 1011.3
20260510040058 23 192 6.4 11.3 0.00 0.00 0.00 54 1011.2
20260510034553 23 152 8.0 9.7 0.00 0.00 0.00 53 1011.2
20260510033056 23 189 4.8 6.4 0.00 0.00 0.00 52 1011.1
20260510031601 23 154 4.8 8.0 0.00 0.00 0.00 51 1010.9
20260510030057 24 169 4.8 8.0 0.00 0.00 0.00 50 1010.8
20260510024601 25 167 4.8 6.4 0.00 0.00 0.00 49 1010.6
20260510023057 25 169 3.2 3.2 0.00 0.00 0.00 48 1010.4
20260510021557 25 162 3.2 3.2 0.00 0.00 0.00 48 1010.2
20260510020100 25 176 3.2 4.8 0.00 0.00 0.00 47 1010.1
20260510014556 26 167 4.8 6.4 0.00 0.00 0.00 46 1010.0
20260510013107 26 159 4.8 4.8 0.00 0.00 0.00 46 1009.8
20260510011554 27 163 3.2 6.4 0.00 0.00 0.00 46 1009.7
20260510010110 28 183 4.8 8.0 0.00 0.00 0.00 45 1009.6
20260510004603 29 205 4.8 9.7 0.00 0.00 0.00 45 1009.6
20260510003057 30 206 3.2 9.7 0.00 0.00 0.00 45 1009.4
20260510001551 30 161 8.0 12.9 0.00 0.00 0.00 45 1009.5
20260510000100 30 193 9.7 14.5 0.00 0.00 0.00 45 1009.5
20260509234605 31 200 8.0 16.1 0.00 0.00 0.00 45 1009.3
20260509233054 31 160 11.3 17.7 0.00 0.00 0.00 46 1009.2
20260509231553 32 167 6.4 14.5 0.00 0.00 0.00 46 1009.3
20260509230052 32 166 11.3 14.5 0.00 0.00 0.00 47 1009.2
20260509224553 32 155 9.7 16.1 0.00 0.00 0.00 48 1009.2
20260509223051 32 156 4.8 12.9 0.00 0.00 0.00 48 1009.3
20260509221607 32 165 4.8 9.7 0.00 0.00 0.00 49 1009.3
20260509220104 31 153 6.4 12.9 0.00 0.00 0.00 50 1009.4
20260509214555 31 136 4.8 19.3 0.00 0.00 0.00 51 1009.4
20260509213055 31 144 8.0 14.5 0.00 0.00 0.00 52 1009.6
20260509211601 32 189 8.0 16.1 0.00 0.00 0.00 53 1009.7
20260509210100 31 148 6.4 16.1 0.00 0.00 0.00 54 1009.9
20260509204601 31 167 6.4 17.7 0.00 0.00 0.00 55 1010.2
20260509203058 31 194 8.0 16.1 0.00 0.00 0.00 56 1010.3
20260509201556 31 120 9.7 17.7 0.00 0.00 0.00 58 1010.5
20260509200059 31 131 4.8 17.7 0.00 0.00 0.00 59 1010.7
20260509194555 31 78 4.8 14.5 0.00 0.00 0.00 61 1010.8
20260509193103 31 114 8.0 17.7 0.00 0.00 0.00 63 1011.1
20260509191612 31 289 0.0 11.3 0.00 0.00 0.00 66 1011.2
20260509190108 30 190 6.4 16.1 0.00 0.00 0.00 68 1011.4
20260509184557 30 158 0.0 14.5 0.00 0.00 0.00 70 1011.5
20260509183102 31 132 8.0 12.9 0.00 0.00 0.00 72 1011.7
20260509181557 30 109 4.8 9.7 0.00 0.00 0.00 74 1011.9
20260509180057 31 152 1.6 11.3 0.00 0.00 0.00 76 1012.1
20260509174552 30 0 1.6 6.4 0.00 0.00 0.00 77 1012.3
20260509173105 30 8 1.6 6.4 0.00 0.00 0.00 79 1012.5
20260509171608 30 271 0.0 3.2 0.00 0.00 0.00 81 1012.7
20260509170057 30 270 1.6 6.4 0.00 0.00 0.00 82 1013.0
20260509164556 30 290 1.6 6.4 0.00 0.00 0.00 84 1013.0
20260509163104 30 0 0.0 4.8 0.00 0.00 0.00 85 1013.0
20260509161555 29 62 0.0 4.8 0.00 0.00 0.00 86 1013.2
20260509160057 28 225 0.0 6.4 0.00 0.00 0.00 87 1013.3
20260509154557 27 316 1.6 6.4 0.00 0.00 0.00 88 1013.1
20260509153058 26 319 1.6 9.7 0.00 0.00 0.00 88 1013.1
20260509151600 26 283 0.0 6.4 0.00 0.00 0.00 89 1013.1
20260509150054 25 297 3.2 8.0 0.00 0.00 0.00 89 1013.1
20260509144553 25 316 0.0 6.4 0.00 0.00 0.00 89 1013.1
20260509143051 25 304 0.0 1.6 0.00 0.00 0.00 89 1013.0
20260509141556 25 0 0.0 3.2 0.00 0.00 0.00 89 1013.0
20260509140052 24 224 0.0 3.2 0.00 0.00 0.00 89 1013.0
20260509134606 23 0 0.0 3.2 0.00 0.00 0.00 89 1013.1
20260509133053 22 0 0.0 3.2 0.00 0.00 0.00 89 1012.9
20260509131611 21 0 0.0 1.6 0.00 0.00 0.00 89 1012.7
20260509130109 20 0 0.0 1.6 0.00 0.00 0.00 88 1012.4
20260509124553 18 0 0.0 1.6 0.00 0.00 0.00 88 1012.5
20260509123104 16 0 0.0 0.0 0.00 0.00 0.00 88 1012.6
20260509121555 16 0 0.0 0.0 0.00 0.00 0.00 88 1012.4
20260509120101 16 0 0.0 1.6 0.00 0.00 0.00 88 1012.2
20260509114609 17 289 1.6 1.6 0.00 0.00 0.00 88 1012.4
20260509113056 17 150 0.0 9.7 0.00 0.00 0.00 87 1012.1
20260509111552 17 168 4.8 11.3 0.00 0.00 0.00 87 1011.8
20260509104555 18 197 6.4 9.7 0.00 0.00 0.00 87 1012.3
20260509103051 18 183 9.7 12.9 0.00 0.00 0.00 87 1012.5
20260509101553 18 0 0.0 3.2 0.00 0.00 0.00 87 1012.8
20260509100053 18 154 0.0 11.3 0.00 0.00 0.00 87 1012.7
20260509094552 18 96 8.0 17.7 0.00 0.00 0.00 86 1013.0
20260509093054 18 58 8.0 19.3 0.00 0.00 0.00 86 1013.5
20260509091559 18 67 3.2 4.8 0.00 0.00 0.00 86 1013.3
20260509084601 18 0 0.0 4.8 0.00 0.03 0.00 86 1013.5
20260509083053 18 334 4.8 11.3 0.00 0.03 0.00 85 1013.6
20260509081602 18 333 4.8 12.9 0.00 0.03 0.00 85 1013.5
20260509080056 18 319 3.2 9.7 0.00 0.03 0.00 85 1012.8
20260509074602 18 0 0.0 0.0 0.00 0.03 0.00 85 1011.7
20260509073053 19 196 3.2 9.7 0.00 0.03 0.00 85 1011.8
20260509071551 19 179 3.2 9.7 0.00 0.03 0.00 84 1011.7
20260509070105 19 201 6.4 11.3 0.00 0.03 0.00 84 1011.7
20260509064553 19 231 8.0 14.5 0.00 0.03 0.00 84 1011.4
20260509063051 19 204 8.0 11.3 0.00 0.03 0.00 83 1011.5